Home   Weather   Vidin   Past weeks
Flag for Bulgaria

Past Weather in Vidin, Bulgaria — Yesterday and Last 2 Weeks

Now
58 °F

Cool.


Feels Like: N/A
Forecast: 72 / 57 °F
Wind: N/A

Location: Calafat

Current Time: May 22, 2019 at 7:57:53 am

Latest Report: May 22, 2019 at 7:00 am


Visibility: N/A

Pressure: 29.93 "Hg

Humidity: 73%

Dew Point: 50 °F

Location of VidinLocation

Past Weather in Vidin — Graph

°F

Vidin Temperature Yesterday

Maximum temperature yesterday: 76 °F (at 7:00 pm)
Minimum temperature yesterday: 54 °F (at 1:00 am)
Average temperature yesterday: 65 °F

High & Low Weather Summary for the Past Weeks

 TemperatureHumidityPressure
High82 °F (May 19, 5:00 pm)100% (May 13, 1:00 am)30.09 "Hg (May 13, 1:00 am)
Low43 °F (May 9, 5:00 am)30% (May 8, 5:00 pm)29.61 "Hg (May 19, 10:00 pm)
Average60 °F73%29.89 "Hg
* Reported May 7 6:00 am — May 22 6:00 am, Vidin. Weather by CustomWeather, © 2019

Note: Actual official high and low records may vary slightly from our data, if they occured in-between our weather recording intervals... More about our weather records

Advertising

Vidin Weather History for the Previous 24 Hours

Scroll right to see more
 ConditionsComfort  
Time TempWeatherWind HumidityBarometerVisibility
6:00 am
Wed, May 22
56 °FCool.No wind82%29.92 "HgN/A
5:00 am58 °FCool.1 mph71%29.91 "HgN/A
4:00 am58 °FCool.1 mph71%29.92 "HgN/A
3:00 am58 °FPassing clouds.1 mph75%29.92 "Hg6 mi
2:00 am60 °FPassing clouds.1 mph68%29.91 "Hg6 mi
1:00 am62 °FClear.1 mph64%29.91 "Hg6 mi
12:00 am63 °FClear.2 mph58%29.90 "Hg6 mi
11:00 pm
Tue, May 21
65 °FPassing clouds.2 mph50%29.88 "Hg6 mi
10:00 pm67 °FPassing clouds.1 mph49%29.86 "Hg6 mi
9:00 pm70 °FPassing clouds.1 mph44%29.84 "Hg6 mi
8:00 pm74 °FScattered clouds.2 mph34%29.83 "Hg6 mi
7:00 pm76 °FScattered clouds.3 mph33%29.83 "Hg6 mi
6:00 pm74 °FPartly sunny.3 mph35%29.84 "Hg6 mi
5:00 pm74 °FPartly sunny.3 mph34%29.84 "Hg6 mi
4:00 pm74 °FPassing clouds.5 mph32%29.86 "Hg6 mi
3:00 pm74 °FScattered clouds.5 mph35%29.86 "Hg6 mi
2:00 pm72 °FScattered clouds.6 mph35%29.87 "Hg6 mi
1:00 pm72 °FScattered clouds.5 mph37%29.86 "Hg6 mi
12:00 pm71 °FScattered clouds.5 mph44%29.87 "Hg6 mi
11:00 am69 °FPartly sunny.3 mph49%29.88 "Hg6 mi
10:00 am65 °FPartly sunny.No wind59%29.88 "Hg6 mi
9:00 am60 °FPartly sunny.1 mph67%29.87 "Hg6 mi
8:00 am60 °FScattered clouds.1 mph67%29.85 "Hg6 mi
7:00 am57 °FCool.1 mph73%29.85 "HgN/A
Weather by CustomWeather, © 2019

See weather overview